Location: Joffre
(52.3362°N, 113.5373°W)
Time: 14:09:27
(UTC+00:00)

Envisat - Pass Details

Date: 28 November 2021
Orbit: 764 x 766 km, 98.2° (Epoch: 28 January)

Event Time Altitude Azimuth Distance (km) Brightness Sun altitude
Rises 00:31:41 0° 196° (SSW) 3,221 6.8 -9.4°
Reaches altitude 10° 00:34:16 10° 207° (SSW) 2,300 6.3 -9.8°
Maximum altitude 00:38:39 29° 267° (W) 1,387 5.2 -10.4°
Drops below altitude 10° 00:43:04 10° 327° (NNW) 2,316 5.7 -11.0°
Sets 00:45:41 0° 339° (NNW) 3,248 6.3 -11.4°
